Date String (YYYY-MM-DD hh:mm:ss) UTC,Instrument flags,absolute air pressure of the measurement (hPa),sample flow rate (lpm),inlet stack bypass flow (lpm),air temperature of the measurement (°C),ambient temperature measured by the external sensor (°C),aerosol sample conditioner tube jacket temperature (°C),OPC LED temperature (°C),internal box temperature (°C),relative humidity of the measurement (%),span deviation,mass concentration of particles derived from Lorenz-Mie calculation of OPC scattering (μg/m³),mass concentration of particles derived from Lorenz-Mie calculation of OPC scattering (μg/m³),mass concentration of particles derived from Lorenz-Mie calculation of OPC scattering (μg/m³)
DateTimeUTC,F1_M11,P_M11,Q1_M11,Q2_M11,T1_M11,T2_M11,T3_M11,T4_M11,T5_M11,U1_M11,ZSPAN_M11,X0_M11,X2_M11,X1_M11
2024-02-06 12:00:00,SystemResetWarning,0825.5,5.00,000.00,018.9,018.3,000.0,027.4,020.6,21.4,0000.0,0006.82,0003.47,0003.20
2024-02-06 12:01:00,SystemResetWarning,0825.6,5.01,000.00,018.9,018.3,000.0,027.4,020.6,21.4,0000.0,0007.39,0003.58,0003.30
2024-02-06 12:02:00,SystemResetWarning,0825.6,5.00,000.00,018.9,018.3,000.0,027.4,020.6,20.9,0000.0,0007.56,0003.67,0003.38
2024-02-06 12:03:00,SystemResetWarning,0825.6,5.00,000.00,018.9,018.3,000.0,027.4,020.6,20.3,0000.0,0007.66,0003.72,0003.43
2024-02-06 12:04:00,SystemResetWarning,0825.6,5.00,000.00,018.9,018.3,000.0,027.4,020.6,20.5,0000.0,0007.70,0003.76,0003.48
2024-02-06 12:05:00,SystemResetWarning,0825.5,5.00,000.00,018.9,018.3,000.0,027.3,020.6,20.8,0001.3,0007.46,0003.81,0003.52
2024-02-06 12:06:00,SystemResetWarning,0825.5,5.00,000.00,018.9,018.3,000.0,027.3,020.6,21.0,0003.6,0007.44,0003.83,0003.54
2024-02-06 12:07:00,SystemResetWarning,0825.5,5.01,000.00,018.9,018.3,000.0,027.3,020.6,21.0,0000.9,0007.43,0003.81,0003.53
2024-02-06 12:08:00,SystemResetWarning,0825.5,4.99,000.00,018.9,018.3,000.0,027.3,020.6,21.0,0000.0,0007.31,0003.75,0003.51
2024-02-06 12:09:00,SystemResetWarning,0825.4,5.00,000.00,018.9,018.3,000.0,027.3,020.6,21.1,0000.0,0006.79,0003.71,0003.48
2024-02-06 12:10:00,SystemResetWarning,0825.4,4.99,000.00,018.9,018.3,000.0,027.3,020.6,21.2,0000.0,0006.48,0003.65,0003.45
2024-02-06 12:11:00,SystemResetWarning,0825.4,5.01,000.00,018.9,018.3,000.0,027.3,020.6,21.2,0000.0,0005.99,0003.61,0003.42
2024-02-06 12:12:00,SystemResetWarning,0825.4,5.00,000.00,018.9,018.3,000.0,027.3,020.6,21.2,0000.0,0005.37,0003.59,0003.41
2024-02-06 12:13:00,SystemResetWarning,0825.4,5.01,000.00,018.9,018.3,000.0,027.3,020.6,21.3,0000.0,0005.20,0003.58,0003.41
2024-02-06 12:14:00,SystemResetWarning,0825.4,5.00,000.00,018.9,018.3,000.0,027.3,020.6,21.4,0000.0,0005.02,0003.59,0003.41
2024-02-06 12:15:00,SystemResetWarning,0825.3,4.99,000.00,018.9,018.3,000.0,027.3,020.6,21.4,0000.0,0004.92,0003.57,0003.40
2024-02-06 12:16:00,SystemResetWarning,0825.2,4.99,000.00,018.9,018.3,000.0,027.3,020.6,21.4,0000.0,0004.97,0003.55,0003.38
2024-02-06 12:17:00,SystemResetWarning,0825.3,5.01,000.00,018.9,018.3,000.0,027.3,020.6,21.4,0000.0,0005.21,0003.59,0003.41
2024-02-06 12:18:00,SystemResetWarning,0825.3,5.01,000.00,018.9,018.3,000.0,027.3,020.6,21.2,0000.0,0005.39,0003.65,0003.47
2024-02-06 12:19:00,SystemResetWarning,0825.3,5.01,000.00,018.9,018.3,000.0,027.3,020.6,21.2,0000.0,0005.48,0003.73,0003.55
2024-02-06 12:20:00,SystemResetWarning,0825.2,5.00,000.00,018.9,018.3,000.0,027.3,020.6,21.3,0000.0,0005.65,0003.80,0003.60
2024-02-06 12:21:00,SystemResetWarning,0825.2,4.98,000.00,018.9,018.3,000.0,027.3,020.6,21.4,0000.0,0005.76,0003.84,0003.64
2024-02-06 12:22:00,SystemResetWarning,0825.3,5.00,000.00,018.9,018.3,000.0,027.3,020.5,21.4,0000.0,0006.06,0003.86,0003.65
2024-02-06 12:23:00,SystemResetWarning,0825.3,5.00,000.00,018.9,018.3,000.0,027.3,020.6,21.4,0000.0,0006.57,0003.88,0003.67
2024-02-06 12:24:00,SystemResetWarning,0825.2,5.01,000.00,018.9,018.3,000.0,027.3,020.5,21.3,0000.0,0006.62,0003.90,0003.69
2024-02-06 12:25:00,SystemResetWarning,0825.2,5.01,000.00,018.9,018.3,000.0,027.3,020.5,21.3,0000.0,0006.64,0003.92,0003.70
2024-02-06 12:26:00,SystemResetWarning,0825.2,5.00,000.00,018.9,018.3,000.0,027.3,020.5,21.2,0000.0,0007.12,0003.93,0003.70
2024-02-06 12:27:00,SystemResetWarning,0825.3,4.99,000.00,018.9,018.3,000.0,027.3,020.5,21.2,0000.0,0007.61,0003.95,0003.72
2024-02-06 12:28:00,SystemResetWarning,0825.3,5.00,000.00,018.9,018.3,000.0,027.3,020.6,21.2,0000.0,0007.57,0003.96,0003.73
2024-02-06 12:29:00,SystemResetWarning,0825.3,4.99,000.00,018.9,018.3,000.0,027.3,020.5,20.7,0000.0,0007.60,0003.96,0003.71
2024-02-06 12:30:00,SystemResetWarning,0825.4,5.00,000.00,018.9,018.3,000.0,027.3,020.5,20.6,0000.0,0007.55,0003.92,0003.69
2024-02-06 12:31:00,SystemResetWarning,0825.4,5.00,000.00,018.8,018.3,000.0,027.3,020.5,20.3,0000.0,0007.55,0003.89,0003.66
2024-02-06 12:32:00,SystemResetWarning,0825.4,5.00,000.00,018.8,018.3,000.0,027.2,020.5,20.1,0000.0,0007.62,0003.89,0003.65
2024-02-06 12:33:00,SystemResetWarning,0825.4,5.00,000.00,018.8,018.3,000.0,027.2,020.5,19.9,0000.0,0007.50,0003.88,0003.61
2024-02-06 12:34:00,SystemResetWarning,0825.3,5.00,000.00,018.8,018.2,000.0,027.2,020.5,20.0,0000.0,0007.18,0003.84,0003.56
2024-02-06 12:35:00,SystemResetWarning,0825.3,4.99,000.00,018.8,018.2,000.0,027.2,020.5,20.2,0000.0,0007.04,0003.77,0003.49
2024-02-06 12:36:00,SystemResetWarning,0825.4,5.00,000.00,018.8,018.2,000.0,027.2,020.5,20.2,0000.0,0006.80,0003.66,0003.41
2024-02-06 12:37:00,SystemResetWarning,0825.5,5.00,000.00,018.8,018.2,000.0,027.2,020.5,19.5,0000.0,0006.24,0003.57,0003.33
2024-02-06 12:38:00,SystemResetWarning,0825.7,5.01,000.00,018.8,018.2,000.0,027.2,020.5,18.7,0000.0,0005.16,0003.48,0003.26
2024-02-06 12:39:00,SystemResetWarning,0825.7,5.00,000.00,018.8,018.2,000.0,027.2,020.5,18.2,0000.0,0004.96,0003.41,0003.19
2024-02-06 12:40:00,SystemResetWarning,0825.7,4.99,000.00,018.8,018.2,000.0,027.2,020.5,18.0,0000.0,0004.64,0003.32,0003.12
2024-02-06 12:41:00,SystemResetWarning,0825.6,4.99,000.00,018.8,018.2,000.0,027.2,020.5,18.0,0000.0,0004.43,0003.21,0002.95
2024-02-06 12:42:00,SystemResetWarning,0825.6,5.00,000.00,018.8,018.2,000.0,027.2,020.4,18.0,0000.0,0004.26,0003.07,0002.72
2024-02-06 12:43:00,SystemResetWarning,0825.6,5.00,000.00,018.8,018.2,000.0,027.2,020.4,18.1,0000.0,0003.80,0002.78,0002.45
2024-02-06 12:44:00,SystemResetWarning,0825.5,5.00,000.00,018.8,018.2,000.0,027.2,020.5,18.2,0000.0,0003.90,0002.55,0002.27
2024-02-06 12:45:00,SystemResetWarning,0825.6,5.01,000.00,018.8,018.2,000.0,027.2,020.5,18.4,0000.0,0004.12,0002.33,0002.08
2024-02-06 12:46:00,SystemResetWarning,0825.6,4.99,000.00,018.8,018.2,000.0,027.2,020.5,18.4,0000.0,0003.94,0002.17,0001.96
2024-02-06 12:47:00,SystemResetWarning,0825.6,5.00,000.00,018.8,018.2,000.0,027.2,020.5,18.4,0000.0,0003.87,0002.08,0001.86
2024-02-06 12:48:00,SystemResetWarning,0825.5,5.00,000.00,018.8,018.2,000.0,027.2,020.4,18.5,0000.0,0004.33,0001.97,0001.75
2024-02-06 12:49:00,SystemResetWarning,0825.4,5.00,000.00,018.8,018.2,000.0,027.2,020.4,18.4,0000.0,0004.82,0001.86,0001.63
2024-02-06 12:50:00,SystemResetWarning,0825.4,5.00,000.00,018.8,018.2,000.0,027.2,020.4,18.4,0000.0,0004.63,0001.71,0001.50
2024-02-06 12:51:00,SystemResetWarning,0825.5,5.01,000.00,018.8,018.2,000.0,027.2,020.4,18.6,0000.0,0004.50,0001.59,0001.39
2024-02-06 12:52:00,SystemResetWarning,0825.6,5.01,000.00,018.8,018.2,000.0,027.2,020.4,18.6,0000.0,0004.48,0001.61,0001.38
2024-02-06 12:53:00,SystemResetWarning,0825.5,5.00,000.00,018.8,018.2,000.0,027.2,020.4,18.6,0000.0,0004.41,0001.62,0001.40
2024-02-06 12:54:00,SystemResetWarning,0825.5,4.99,000.00,018.8,018.2,000.0,027.2,020.4,18.9,0000.0,0004.48,0001.67,0001.43
2024-02-06 12:55:00,SystemResetWarning,0825.4,4.99,000.00,018.8,018.2,000.0,027.2,020.4,19.2,0000.0,0004.04,0001.73,0001.49
2024-02-06 12:56:00,SystemResetWarning,0825.3,5.00,000.00,018.8,018.2,000.0,027.2,020.4,19.1,0000.0,0003.59,0001.80,0001.55
2024-02-06 12:57:00,SystemResetWarning,0825.4,5.01,000.00,018.8,018.2,000.0,027.2,020.5,18.9,0000.0,0003.65,0001.86,0001.60
2024-02-06 12:58:00,SystemResetWarning,0825.5,4.99,000.00,018.8,018.2,000.0,027.2,020.4,19.0,0000.0,0003.78,0001.94,0001.66
2024-02-06 12:59:00,SystemResetWarning,0825.6,5.00,000.00,018.8,018.2,000.0,027.2,020.4,18.9,0000.0,0003.60,0002.04,0001.73
